Location: Kimberly
(42.5380°N, 114.3640°W)
Time: 18:54:11
(UTC-07:00)

BlueWalker 3 - Visible Passes

Search period start: 18 November 2025 00:00
Search period end: 28 November 2025 00:00
Orbit: 456 x 463 km, 53.2° (Epoch: 18 November)

Date Brightness Start Highest point End Pass type
(mag) Time Alt. Az. Time Alt. Az. Time Alt. Az.
18 Nov 2.1 19:01:31 10° SW 19:04:44 52° SSE 19:04:44 52° SSE visible
19 Nov 2.3 18:27:09 10° SSW 18:30:34 41° SE 18:31:53 29° E visible
19 Nov 4.8 20:04:54 10° W 20:05:41 15° W 20:05:41 15° W visible
20 Nov 2.8 17:52:49 10° SSW 17:56:04 32° SE 17:58:56 12° ENE visible
20 Nov 3.4 19:30:10 10° W 19:32:44 32° WNW 19:32:44 32° WNW visible
21 Nov 2.5 18:55:28 10° WSW 18:58:58 45° NNW 18:59:42 39° N visible
22 Nov 2.2 18:20:48 10° WSW 18:24:21 56° NNW 18:26:35 21° NE visible
22 Nov 4.9 19:59:55 10° WNW 20:00:22 12° NW 20:00:22 12° NW visible
23 Nov 1.9 17:46:08 10° WSW 17:49:44 71° NW 17:53:22 10° NE visible
23 Nov 4.0 19:25:03 10° WNW 19:27:11 19° NNW 19:27:11 19° NNW visible
24 Nov 3.6 18:50:11 10° WNW 18:53:05 22° NNW 18:53:57 20° N visible
25 Nov 3.5 18:15:19 10° WNW 18:18:21 24° NNW 18:20:40 14° NNE visible
26 Nov 3.3 17:40:27 10° W 17:43:36 28° NNW 17:46:48 10° NE visible
26 Nov 4.3 19:19:52 10° NW 19:21:08 14° NNW 19:21:08 14° NNW visible
27 Nov 3.9 18:45:01 10° NW 18:47:17 16° N 18:47:47 15° N visible
